Location: Unspecified
(48.5539°N, 71.6350°W)
Time: 20:09:11
(UTC-05:00)

ISS - Pass Details

Date: 25 January 2019
Orbit: 403 x 411 km, 51.6° (Epoch: 22 February)

Event Time Altitude Azimuth Distance (km) Brightness Sun altitude
Rises 17:02:40 0° 202° (SSW) 2,319 0.8 -5.2°
Reaches altitude 10° 17:05:12 10° 182° (S) 1,466 -0.7 -5.6°
Maximum altitude 17:07:27 17° 138° (SE) 1,106 -1.8 -5.9°
Drops below altitude 10° 17:09:44 10° 95° (E) 1,477 -1.5 -6.3°
Enters shadow 17:10:27 - 87° (E) 1,695 -1.3 -6.4°
Sets 17:12:17 0° 75° (ENE) 2,344 - -6.6°
